STARLINK-32433, 61852

Orbit data source: Space-Track

STARLINK-32433, 61852 is a payload satellite owned by SpaceX/Seattle (US) in LEO that was launched on Thu, 07 Nov 2024 UTC via an FALCON 9 launch vehicle from the Air Force Eastern Test Range (AFETR). Payload-class satellites include a variety of spacecraft equipped with specific instruments for various scientific and technological missions. These include communications satellites like Starlink; space stations such as the ISS; scientific satellites like the Hubble; Earth observation satellites from companies like Planet Labs, Umbra, and HawkEye 360; GPS; miniature CubeSats for education and research; and military/defense satellites.

Loading next visibility...
Identifier
61852, 2024-202H
Orbit
LEO
Country
Flag of USUS
Related business
Manufacturer
SpaceX/Seattle
Mission
Operational Commercial Communications
Bus & Motor
STARLINK V2M, Unknown motor
Mass
730 kg wet, ~700 kg dry
Launch date (UTC)
2024-11-07 (1 year ago)
Launch vehicle
FALCON 9
Launch site
Air Force Eastern Test Range (AFETR)
Object type
Payload
Rocket body
Debris
Shape & HBR
Box + 2 Pan, 17.7 m
Radar Cross Section
33.884 m², Large (>1 m²)

Expand to show TLE details & history
Last TLE update: 1 day ago

TLE from 1 day ago
0 STARLINK-32433
1 61852U 24202H   26034.37762965 -.00000669  00000-0 -14748-4 0  9993
2 61852  43.0029  71.4542 0002657 269.4766  90.5782 15.27591106 70099
Epoch: 2026-02-03T09:03Z
TLE epoch observation values (Epoch: 2026-02-03T09:03:47.201Z)
Latitude
0.00002°
Longitude
161.94812°
Altitude
482.81 km
Speed
7.626 km/s
True Right ascension
04h 45m 49s
True Declination
0° 00' 00"
Sunlit
Object was in full shadow at epoch
Visualization orbit readout
Latitude
Unknown
Longitude
Unknown
Altitude
Unknown
Speed
Unknown
Apparent Right ascension
Unknown
Apparent Declination
Unknown
Sunlit
N/A
Visualization observer readout
Local Sidereal Time
14:15:23
Azimuth
Unknown
Elevation
Unknown
Doppler factor
Unknown
Orbital elements
Apogee altitude
486.784 km
Perigee altitude
483.137 km
Semi-major axis
6,863.098 km
Eccentricity
0.00027
Inclination
43.0029°
RAAN
71.4542°
Arg. of periapsis
269.4766°
True anomaly
90.60865°
Mean anomaly
90.5782°
Eccentric anomaly
90.59342°
Mean motion
3.81736 °/min
Orbital period
94.31 mins
BSTAR
-0.000014748
Loading maneuver chart data...
Computing Atmospheric mass density...
Loading historical data...
Loading historical data...
Loading historical data...
Loading historical data...
Loading historical data...
Loading historical data...
Loading historical data...

Documentation

Showing up to 5 results
|